Voltar ao catálogo

HULIANWANG DIGUI-164

AtivoComunicaçõesPO
NORAD 68656·PAYLOAD·🇨🇳 China

Lançado Apr 8, 2026 de Taiyuan Satellite Launch Center

Loading…

Próximas Passagens (próximas 24 horas)

TLE

AtualizadoSource: Space-Track

Época: Sep 14, 2026, 21:04 UTC

1 68656U 26076A   26257.87811899  .00000050  00000-0  83120-4 0  9998
2 68656  86.5025  13.5932 0001527 115.2819 244.8473 13.24407045 21245

Acompanhe HULIANWANG DIGUI-164 em tempo real com AllMySat

Download on the App Store